| time (UTC) | temp F | wind direction | speed MPH | gust MPH | rain 1hr in | rain 24hr in | rain mn in | humidity % | barometer mb |
| 20260905043529 | 78 | 355 | 0.0 | 0.0 | 0.00 | 0.03 | 0.02 | 96 | 1015.1 |
| 20260905043029 | 78 | 355 | 0.0 | 0.0 | 0.00 | 0.03 | 0.02 | 95 | 1015.1 |
| 20260905042530 | 78 | 355 | 0.0 | 0.0 | 0.00 | 0.03 | 0.02 | 95 | 1015.1 |
| 20260905042028 | 79 | 355 | 0.0 | 0.0 | 0.00 | 0.03 | 0.02 | 95 | 1015.2 |
| 20260905041529 | 79 | 355 | 0.0 | 1.0 | 0.00 | 0.03 | 0.02 | 96 | 1015.2 |
| 20260905041029 | 79 | 355 | 0.0 | 1.0 | 0.00 | 0.03 | 0.02 | 96 | 1015.2 |
| 20260905040528 | 78 | 346 | 0.0 | 1.0 | 0.00 | 0.03 | 0.02 | 96 | 1015.2 |
| 20260905040028 | 78 | 342 | 0.0 | 1.0 | 0.00 | 0.03 | 0.02 | 96 | 1015.3 |
| 20260905035529 | 78 | 342 | 0.0 | 0.0 | 0.00 | 0.03 | 0.02 | 95 | 1015.3 |
| 20260905035027 | 78 | 342 | 0.0 | 0.0 | 0.00 | 0.03 | 0.02 | 96 | 1015.3 |
| 20260905034528 | 78 | 342 | 0.0 | 0.0 | 0.00 | 0.03 | 0.02 | 95 | 1015.4 |
| 20260905034031 | 78 | 342 | 0.0 | 0.0 | 0.00 | 0.03 | 0.02 | 95 | 1015.4 |
| 20260905033528 | 78 | 342 | 0.0 | 0.0 | 0.00 | 0.03 | 0.02 | 95 | 1015.5 |
| 20260905033034 | 78 | 342 | 0.0 | 0.0 | 0.00 | 0.03 | 0.02 | 95 | 1015.5 |
| 20260905032527 | 78 | 342 | 0.0 | 0.0 | 0.00 | 0.03 | 0.02 | 95 | 1015.5 |
| 20260905032026 | 78 | 342 | 0.0 | 0.0 | 0.00 | 0.03 | 0.02 | 95 | 1015.4 |
| 20260905031530 | 78 | 342 | 0.0 | 0.0 | 0.00 | 0.03 | 0.02 | 95 | 1015.5 |
| 20260905031026 | 78 | 342 | 0.0 | 0.0 | 0.00 | 0.03 | 0.02 | 95 | 1015.6 |
| 20260905030529 | 78 | 342 | 0.0 | 0.0 | 0.00 | 0.03 | 0.02 | 95 | 1015.6 |
| 20260905030034 | 78 | 342 | 0.0 | 0.0 | 0.00 | 0.03 | 0.02 | 95 | 1015.5 |
| 20260905025525 | 78 | 342 | 0.0 | 0.0 | 0.00 | 0.03 | 0.02 | 95 | 1015.4 |
| 20260905025028 | 78 | 342 | 0.0 | 0.0 | 0.00 | 0.03 | 0.02 | 95 | 1015.5 |
| 20260905024531 | 78 | 342 | 0.0 | 0.0 | 0.00 | 0.03 | 0.02 | 95 | 1015.5 |
| 20260905024025 | 78 | 342 | 0.0 | 0.0 | 0.00 | 0.03 | 0.02 | 95 | 1015.4 |
| 20260905023526 | 77 | 342 | 0.0 | 0.0 | 0.00 | 0.03 | 0.02 | 94 | 1015.2 |
| 20260905023026 | 77 | 342 | 0.0 | 0.0 | 0.00 | 0.03 | 0.02 | 94 | 1015.2 |
| 20260905022525 | 77 | 342 | 0.0 | 0.0 | 0.00 | 0.03 | 0.02 | 94 | 1015.2 |
| 20260905022025 | 77 | 342 | 0.0 | 1.0 | 0.00 | 0.03 | 0.02 | 94 | 1015.1 |
| 20260905021525 | 77 | 342 | 0.0 | 1.0 | 0.00 | 0.03 | 0.02 | 94 | 1015.0 |
| 20260905021024 | 77 | 340 | 0.0 | 0.0 | 0.00 | 0.03 | 0.02 | 94 | 1015.0 |
| 20260905020524 | 77 | 340 | 0.0 | 0.0 | 0.00 | 0.03 | 0.02 | 94 | 1014.8 |
| 20260905020045 | 77 | 340 | 0.0 | 0.0 | 0.00 | 0.03 | 0.02 | 94 | 1014.8 |
| 20260905015524 | 77 | 340 | 0.0 | 0.0 | 0.00 | 0.03 | 0.02 | 94 | 1014.8 |
| 20260905015024 | 77 | 340 | 0.0 | 0.0 | 0.00 | 0.03 | 0.02 | 94 | 1014.9 |
| 20260905014524 | 77 | 339 | 0.0 | 0.0 | 0.00 | 0.03 | 0.02 | 94 | 1014.8 |
| 20260905014024 | 77 | 340 | 0.0 | 0.0 | 0.00 | 0.03 | 0.02 | 94 | 1014.7 |
| 20260905013523 | 77 | 340 | 0.0 | 0.0 | 0.00 | 0.03 | 0.02 | 94 | 1014.6 |
| 20260905013027 | 77 | 340 | 0.0 | 2.0 | 0.00 | 0.03 | 0.02 | 93 | 1014.4 |
| 20260905012523 | 77 | 340 | 0.0 | 2.0 | 0.00 | 0.03 | 0.02 | 93 | 1014.3 |
| 20260905012024 | 77 | 340 | 0.0 | 2.0 | 0.00 | 0.03 | 0.02 | 93 | 1014.4 |
| 20260905011522 | 77 | 340 | 0.0 | 0.0 | 0.00 | 0.03 | 0.02 | 92 | 1014.4 |
| 20260905011023 | 77 | 340 | 0.0 | 3.0 | 0.00 | 0.03 | 0.02 | 92 | 1014.4 |
| 20260905010523 | 77 | 340 | 0.0 | 3.0 | 0.00 | 0.03 | 0.02 | 92 | 1014.5 |
| 20260905010023 | 76 | 337 | 1.0 | 3.0 | 0.01 | 0.03 | 0.02 | 91 | 1014.4 |
| 20260905005527 | 76 | 323 | 0.0 | 4.0 | 0.01 | 0.04 | 0.02 | 90 | 1014.4 |
| 20260905005025 | 77 | 329 | 1.0 | 10.0 | 0.01 | 0.04 | 0.02 | 90 | 1014.5 |
| 20260905004520 | 77 | 285 | 1.0 | 13.0 | 0.01 | 0.04 | 0.02 | 89 | 1014.5 |
| 20260905004019 | 78 | 280 | 3.0 | 13.0 | 0.01 | 0.04 | 0.02 | 89 | 1014.5 |
| 20260905003519 | 79 | 277 | 2.0 | 5.0 | 0.01 | 0.04 | 0.02 | 90 | 1014.5 |
| 20260905003019 | 79 | 273 | 1.0 | 4.0 | 0.01 | 0.04 | 0.02 | 90 | 1014.5 |
| 20260905002520 | 80 | 269 | 1.0 | 4.0 | 0.01 | 0.04 | 0.02 | 87 | 1014.6 |
| 20260905002020 | 81 | 229 | 0.0 | 19.0 | 0.01 | 0.04 | 0.02 | 85 | 1014.5 |
| 20260905001518 | 84 | 211 | 4.0 | 19.0 | 0.01 | 0.04 | 0.02 | 81 | 1014.4 |
| 20260905001017 | 88 | 178 | 7.0 | 12.0 | 0.01 | 0.04 | 0.02 | 74 | 1013.9 |
| 20260905000517 | 89 | 46 | 4.0 | 10.0 | 0.01 | 0.04 | 0.02 | 70 | 1013.8 |
| 20260905000017 | 89 | 67 | 2.0 | 8.0 | 0.00 | 0.03 | 0.01 | 69 | 1013.4 |
| 20260904235516 | 89 | 49 | 4.0 | 6.0 | 0.00 | 0.03 | 0.01 | 69 | 1013.5 |
| 20260904235020 | 89 | 46 | 0.0 | 7.0 | 0.00 | 0.03 | 0.01 | 70 | 1013.7 |
| 20260904234516 | 89 | 63 | 0.0 | 7.0 | 0.00 | 0.03 | 0.01 | 70 | 1013.7 |
| 20260904234016 | 89 | 54 | 1.0 | 5.0 | 0.00 | 0.03 | 0.01 | 70 | 1013.6 |
| 20260904233516 | 90 | 28 | 2.0 | 10.0 | 0.00 | 0.03 | 0.01 | 69 | 1013.6 |
| 20260904233016 | 90 | 80 | 4.0 | 10.0 | 0.00 | 0.03 | 0.01 | 69 | 1013.6 |
| 20260904232520 | 90 | 25 | 3.0 | 9.0 | 0.00 | 0.03 | 0.01 | 69 | 1013.7 |
| 20260904232017 | 90 | 49 | 3.0 | 9.0 | 0.00 | 0.03 | 0.01 | 69 | 1013.6 |
| 20260904231517 | 90 | 54 | 2.0 | 9.0 | 0.00 | 0.03 | 0.01 | 69 | 1013.6 |
| 20260904231015 | 90 | 360 | 2.0 | 8.0 | 0.00 | 0.03 | 0.01 | 69 | 1013.6 |
| 20260904230517 | 90 | 87 | 3.0 | 8.0 | 0.00 | 0.03 | 0.01 | 69 | 1013.6 |
| 20260904230015 | 90 | 52 | 2.0 | 8.0 | 0.00 | 0.03 | 0.01 | 69 | 1013.5 |
| 20260904225514 | 90 | 9 | 3.0 | 9.0 | 0.00 | 0.03 | 0.01 | 69 | 1013.4 |
| 20260904225014 | 90 | 44 | 3.0 | 9.0 | 0.00 | 0.03 | 0.01 | 69 | 1013.5 |
| 20260904224519 | 90 | 51 | 2.0 | 6.0 | 0.00 | 0.03 | 0.01 | 68 | 1013.4 |
| 20260904224015 | 90 | 59 | 1.0 | 5.0 | 0.00 | 0.03 | 0.01 | 69 | 1013.4 |
| 20260904223515 | 90 | 57 | 1.0 | 9.0 | 0.00 | 0.03 | 0.01 | 69 | 1013.3 |
| 20260904223020 | 90 | 15 | 3.0 | 10.0 | 0.00 | 0.03 | 0.01 | 68 | 1013.3 |
| 20260904222517 | 91 | 348 | 2.0 | 9.0 | 0.00 | 0.03 | 0.01 | 65 | 1013.6 |
| 20260904222012 | 92 | 74 | 4.0 | 9.0 | 0.00 | 0.03 | 0.01 | 64 | 1013.7 |
| 20260904221512 | 92 | 43 | 2.0 | 9.0 | 0.00 | 0.03 | 0.01 | 64 | 1013.6 |
| 20260904221012 | 92 | 136 | 2.0 | 4.0 | 0.00 | 0.03 | 0.01 | 60 | 1013.6 |
| 20260904220512 | 92 | 103 | 0.0 | 3.0 | 0.00 | 0.03 | 0.01 | 61 | 1013.7 |
| 20260904220012 | 92 | 9 | 0.0 | 3.0 | 0.00 | 0.03 | 0.01 | 62 | 1013.8 |
| 20260904215511 | 92 | 80 | 0.0 | 7.0 | 0.00 | 0.03 | 0.01 | 62 | 1013.7 |
| 20260904215012 | 92 | 134 | 3.0 | 7.0 | 0.00 | 0.03 | 0.01 | 63 | 1013.6 |
| 20260904214512 | 92 | 150 | 1.0 | 6.0 | 0.00 | 0.03 | 0.01 | 63 | 1013.6 |
| 20260904214010 | 92 | 128 | 3.0 | 7.0 | 0.00 | 0.03 | 0.01 | 61 | 1013.5 |
| 20260904213513 | 92 | 170 | 2.0 | 6.0 | 0.00 | 0.03 | 0.01 | 61 | 1013.6 |
| 20260904213022 | 92 | 156 | 4.0 | 6.0 | 0.00 | 0.03 | 0.01 | 61 | 1013.6 |
| 20260904212509 | 92 | 176 | 0.0 | 4.0 | 0.00 | 0.03 | 0.01 | 62 | 1013.7 |
| 20260904212007 | 93 | 117 | 1.0 | 6.0 | 0.00 | 0.03 | 0.01 | 59 | 1013.8 |
| 20260904211506 | 92 | 79 | 2.0 | 5.0 | 0.00 | 0.03 | 0.01 | 62 | 1013.9 |
| 20260904211007 | 92 | 136 | 0.0 | 2.0 | 0.00 | 0.03 | 0.01 | 64 | 1013.8 |
| 20260904210504 | 92 | 82 | 0.0 | 3.0 | 0.00 | 0.03 | 0.01 | 67 | 1013.9 |
| 20260904210008 | 91 | 81 | 0.0 | 3.0 | 0.00 | 0.04 | 0.01 | 67 | 1014.1 |
| 20260904205502 | 91 | 82 | 0.0 | 5.0 | 0.00 | 0.04 | 0.01 | 65 | 1014.3 |
| 20260904205003 | 91 | 81 | 1.0 | 5.0 | 0.00 | 0.04 | 0.01 | 67 | 1014.3 |
| 20260904204601 | 91 | 54 | 1.0 | 4.0 | 0.00 | 0.04 | 0.01 | 65 | 1014.3 |
| 20260904204059 | 91 | 171 | 0.0 | 3.0 | 0.00 | 0.04 | 0.01 | 67 | 1014.5 |
| 20260904203559 | 90 | 173 | 0.0 | 3.0 | 0.00 | 0.04 | 0.01 | 69 | 1014.6 |
| 20260904203106 | 90 | 176 | 0.0 | 3.0 | 0.00 | 0.04 | 0.01 | 69 | 1014.7 |
| 20260904202558 | 90 | 176 | 0.0 | 6.0 | 0.00 | 0.04 | 0.01 | 70 | 1014.9 |
| 20260904202056 | 90 | 205 | 1.0 | 6.0 | 0.00 | 0.04 | 0.01 | 70 | 1015.0 |
| 20260904201555 | 89 | 160 | 3.0 | 6.0 | 0.00 | 0.04 | 0.01 | 71 | 1015.0 |
| 20260904201055 | 89 | 100 | 1.0 | 4.0 | 0.00 | 0.04 | 0.01 | 73 | 1014.8 |
| 20260904200557 | 89 | 112 | 1.0 | 5.0 | 0.00 | 0.04 | 0.01 | 73 | 1014.9 |
| 20260904200109 | 88 | 175 | 0.0 | 3.0 | 0.00 | 0.04 | 0.01 | 73 | 1014.9 |
| 20260904195555 | 88 | 175 | 1.0 | 3.0 | 0.00 | 0.07 | 0.01 | 72 | 1015.0 |
| 20260904195054 | 88 | 120 | 0.0 | 5.0 | 0.00 | 0.07 | 0.01 | 74 | 1015.0 |
| 20260904194558 | 88 | 180 | 2.0 | 5.0 | 0.00 | 0.07 | 0.01 | 76 | 1015.0 |
| 20260904194053 | 87 | 151 | 1.0 | 4.0 | 0.00 | 0.07 | 0.01 | 77 | 1015.1 |
| 20260904193554 | 87 | 132 | 3.0 | 5.0 | 0.00 | 0.07 | 0.01 | 75 | 1015.3 |
| 20260904193054 | 86 | 159 | 0.0 | 3.0 | 0.00 | 0.07 | 0.01 | 79 | 1015.4 |
| 20260904192552 | 86 | 143 | 1.0 | 3.0 | 0.00 | 0.07 | 0.01 | 80 | 1015.4 |
| 20260904192053 | 85 | 116 | 0.0 | 1.0 | 0.00 | 0.07 | 0.01 | 83 | 1015.5 |
| 20260904191553 | 84 | 90 | 0.0 | 1.0 | 0.00 | 0.07 | 0.01 | 85 | 1015.4 |
| 20260904191053 | 83 | 88 | 0.0 | 1.0 | 0.00 | 0.07 | 0.01 | 87 | 1015.7 |
| 20260904190552 | 82 | 88 | 0.0 | 1.0 | 0.00 | 0.07 | 0.01 | 88 | 1015.8 |
| 20260904190052 | 81 | 104 | 0.0 | 2.0 | 0.00 | 0.07 | 0.01 | 89 | 1016.0 |
| 20260904185552 | 81 | 61 | 0.0 | 2.0 | 0.00 | 0.13 | 0.01 | 91 | 1016.1 |
| 20260904185052 | 81 | 162 | 0.0 | 1.0 | 0.00 | 0.13 | 0.01 | 92 | 1016.2 |
| 20260904184552 | 80 | 167 | 0.0 | 1.0 | 0.00 | 0.13 | 0.01 | 93 | 1016.1 |
| 20260904184052 | 80 | 167 | 0.0 | 1.0 | 0.00 | 0.13 | 0.01 | 93 | 1016.2 |
| 20260904183552 | 80 | 167 | 0.0 | 1.0 | 0.00 | 0.13 | 0.01 | 93 | 1016.5 |
| 20260904183052 | 79 | 167 | 0.0 | 3.0 | 0.00 | 0.13 | 0.01 | 92 | 1016.5 |
| 20260904182551 | 79 | 167 | 0.0 | 3.0 | 0.00 | 0.13 | 0.01 | 93 | 1016.5 |
| 20260904182051 | 79 | 171 | 0.0 | 4.0 | 0.00 | 0.13 | 0.01 | 92 | 1016.7 |
| 20260904181555 | 79 | 118 | 0.0 | 2.0 | 0.00 | 0.13 | 0.01 | 92 | 1016.7 |
| 20260904181052 | 79 | 117 | 0.0 | 2.0 | 0.00 | 0.13 | 0.01 | 92 | 1016.9 |
| 20260904180554 | 79 | 191 | 0.0 | 1.0 | 0.00 | 0.13 | 0.01 | 92 | 1016.9 |
| 20260904180051 | 79 | 195 | 0.0 | 3.0 | 0.00 | 0.13 | 0.01 | 92 | 1016.9 |
| 20260904175551 | 79 | 195 | 0.0 | 3.0 | 0.00 | 0.27 | 0.01 | 92 | 1017.0 |
| 20260904175050 | 79 | 327 | 0.0 | 4.0 | 0.00 | 0.27 | 0.01 | 92 | 1017.0 |
| 20260904174604 | 78 | 327 | 1.0 | 4.0 | 0.00 | 0.27 | 0.01 | 90 | 1017.0 |
| 20260904174049 | 78 | 5 | 0.0 | 5.0 | 0.00 | 0.27 | 0.01 | 90 | 1017.1 |
| 20260904173548 | 79 | 15 | 1.0 | 4.0 | 0.00 | 0.27 | 0.01 | 90 | 1017.1 |
| 20260904173101 | 79 | 164 | 0.0 | 1.0 | 0.00 | 0.27 | 0.01 | 90 | 1017.0 |
| 20260904172548 | 79 | 164 | 0.0 | 3.0 | 0.00 | 0.27 | 0.01 | 89 | 1016.7 |
| 20260904172048 | 79 | 219 | 0.0 | 1.0 | 0.00 | 0.27 | 0.01 | 88 | 1016.9 |
| 20260904171558 | 80 | 222 | 0.0 | 2.0 | 0.00 | 0.27 | 0.01 | 87 | 1017.1 |
| 20260904171046 | 80 | 221 | 0.0 | 4.0 | 0.00 | 0.27 | 0.01 | 86 | 1017.2 |
| 20260904170546 | 81 | 220 | 0.0 | 10.0 | 0.00 | 0.27 | 0.01 | 85 | 1017.1 |
| 20260904170046 | 82 | 187 | 7.0 | 10.0 | 0.00 | 0.27 | 0.01 | 83 | 1017.1 |
| 20260904165545 | 83 | 219 | 2.0 | 7.0 | 0.00 | 0.27 | 0.01 | 80 | 1017.0 |
| 20260904165044 | 84 | 223 | 1.0 | 7.0 | 0.00 | 0.27 | 0.01 | 78 | 1017.0 |
| 20260904164549 | 85 | 194 | 2.0 | 7.0 | 0.00 | 0.27 | 0.01 | 84 | 1016.9 |
| 20260904164044 | 86 | 153 | 1.0 | 9.0 | 0.00 | 0.27 | 0.01 | 85 | 1016.7 |
| 20260904163543 | 86 | 360 | 1.0 | 9.0 | 0.00 | 0.27 | 0.01 | 85 | 1016.7 |
| 20260904163047 | 86 | 115 | 1.0 | 7.0 | 0.00 | 0.27 | 0.01 | 86 | 1016.6 |
| 20260904162543 | 86 | 91 | 2.0 | 8.0 | 0.00 | 0.27 | 0.01 | 84 | 1016.5 |
| 20260904162043 | 86 | 74 | 1.0 | 8.0 | 0.00 | 0.27 | 0.01 | 84 | 1016.4 |
| 20260904161542 | 86 | 64 | 3.0 | 8.0 | 0.00 | 0.27 | 0.01 | 84 | 1016.4 |
| 20260904161041 | 86 | 128 | 0.0 | 11.0 | 0.00 | 0.27 | 0.01 | 84 | 1016.4 |
| 20260904160544 | 86 | 83 | 4.0 | 11.0 | 0.00 | 0.27 | 0.01 | 83 | 1016.3 |
| 20260904160041 | 87 | 135 | 4.0 | 10.0 | 0.00 | 0.27 | 0.01 | 82 | 1016.3 |
| 20260904155543 | 87 | 58 | 4.0 | 9.0 | 0.00 | 0.27 | 0.01 | 81 | 1016.2 |
| 20260904155041 | 88 | 112 | 3.0 | 9.0 | 0.00 | 0.27 | 0.01 | 79 | 1016.5 |
| 20260904154540 | 89 | 67 | 3.0 | 8.0 | 0.00 | 0.27 | 0.01 | 78 | 1016.4 |
| 20260904154041 | 90 | 86 | 2.0 | 6.0 | 0.00 | 0.27 | 0.01 | 76 | 1016.3 |
| 20260904153539 | 90 | 109 | 1.0 | 4.0 | 0.00 | 0.27 | 0.01 | 75 | 1016.1 |
| 20260904153038 | 90 | 120 | 0.0 | 6.0 | 0.00 | 0.27 | 0.01 | 76 | 1016.1 |
| 20260904152536 | 89 | 127 | 2.0 | 6.0 | 0.00 | 0.27 | 0.01 | 75 | 1016.1 |
| 20260904152036 | 89 | 172 | 2.0 | 6.0 | 0.00 | 0.27 | 0.01 | 76 | 1016.0 |
| 20260904151534 | 89 | 89 | 1.0 | 6.0 | 0.00 | 0.27 | 0.01 | 78 | 1016.2 |
| 20260904151037 | 89 | 121 | 1.0 | 5.0 | 0.00 | 0.27 | 0.01 | 79 | 1015.9 |
| 20260904150533 | 88 | 141 | 2.0 | 5.0 | 0.00 | 0.27 | 0.01 | 80 | 1016.1 |
| 20260904150037 | 87 | 144 | 1.0 | 7.0 | 0.00 | 0.27 | 0.01 | 80 | 1016.0 |
| 20260904145529 | 87 | 116 | 1.0 | 7.0 | 0.00 | 0.27 | 0.01 | 82 | 1016.0 |
| 20260904145029 | 87 | 200 | 2.0 | 7.0 | 0.00 | 0.27 | 0.01 | 83 | 1016.0 |
| 20260904144527 | 87 | 134 | 3.0 | 6.0 | 0.00 | 0.27 | 0.01 | 84 | 1016.1 |
| 20260904144029 | 86 | 90 | 0.0 | 4.0 | 0.00 | 0.27 | 0.01 | 85 | 1016.1 |
| 20260904143526 | 86 | 135 | 2.0 | 4.0 | 0.00 | 0.27 | 0.01 | 86 | 1016.0 |
| 20260904143025 | 85 | 128 | 0.0 | 4.0 | 0.00 | 0.27 | 0.01 | 88 | 1016.0 |
| 20260904142522 | 85 | 116 | 1.0 | 4.0 | 0.00 | 0.27 | 0.01 | 89 | 1016.0 |
| 20260904142021 | 84 | 133 | 0.0 | 1.0 | 0.00 | 0.27 | 0.01 | 90 | 1015.9 |
| 20260904141520 | 84 | 136 | 0.0 | 4.0 | 0.00 | 0.27 | 0.01 | 91 | 1015.9 |
| 20260904141018 | 83 | 130 | 1.0 | 4.0 | 0.00 | 0.27 | 0.01 | 91 | 1016.0 |
| 20260904140517 | 83 | 131 | 0.0 | 2.0 | 0.00 | 0.27 | 0.01 | 94 | 1015.9 |
| 20260904140017 | 82 | 134 | 0.0 | 3.0 | 0.00 | 0.27 | 0.01 | 94 | 1016.0 |
| 20260904135516 | 82 | 134 | 0.0 | 3.0 | 0.00 | 0.27 | 0.01 | 94 | 1015.9 |
| 20260904135016 | 82 | 133 | 1.0 | 2.0 | 0.00 | 0.27 | 0.01 | 95 | 1015.9 |
| 20260904134517 | 82 | 133 | 0.0 | 2.0 | 0.00 | 0.27 | 0.01 | 96 | 1016.0 |
| 20260904134013 | 81 | 136 | 0.0 | 2.0 | 0.00 | 0.27 | 0.01 | 96 | 1015.9 |
| 20260904133516 | 81 | 136 | 0.0 | 2.0 | 0.00 | 0.27 | 0.01 | 96 | 1015.9 |
| 20260904133012 | 80 | 137 | 0.0 | 2.0 | 0.00 | 0.27 | 0.01 | 96 | 1015.9 |
| 20260904132512 | 80 | 138 | 0.0 | 1.0 | 0.00 | 0.27 | 0.01 | 96 | 1015.8 |
| 20260904132012 | 80 | 138 | 0.0 | 1.0 | 0.00 | 0.27 | 0.01 | 96 | 1015.8 |
| 20260904131510 | 80 | 138 | 0.0 | 2.0 | 0.00 | 0.27 | 0.01 | 96 | 1015.8 |
| 20260904131010 | 80 | 157 | 0.0 | 2.0 | 0.00 | 0.27 | 0.01 | 96 | 1015.7 |
| 20260904130514 | 80 | 157 | 0.0 | 0.0 | 0.00 | 0.27 | 0.01 | 96 | 1015.8 |
| 20260904130009 | 80 | 157 | 0.0 | 0.0 | 0.00 | 0.27 | 0.01 | 96 | 1015.7 |
| 20260904125509 | 80 | 157 | 0.0 | 0.0 | 0.00 | 0.27 | 0.01 | 96 | 1015.5 |
| 20260904125008 | 80 | 157 | 0.0 | 0.0 | 0.00 | 0.27 | 0.01 | 96 | 1015.5 |
| 20260904124507 | 80 | 157 | 0.0 | 0.0 | 0.00 | 0.27 | 0.01 | 96 | 1015.3 |
| 20260904124008 | 80 | 157 | 0.0 | 0.0 | 0.00 | 0.27 | 0.01 | 96 | 1015.3 |
| 20260904123508 | 79 | 157 | 0.0 | 0.0 | 0.00 | 0.27 | 0.01 | 96 | 1015.2 |
| 20260904123005 | 79 | 157 | 0.0 | 0.0 | 0.00 | 0.27 | 0.01 | 96 | 1015.2 |
| 20260904122505 | 79 | 157 | 0.0 | 0.0 | 0.00 | 0.27 | 0.01 | 95 | 1015.1 |
| 20260904122004 | 79 | 157 | 0.0 | 0.0 | 0.00 | 0.27 | 0.01 | 95 | 1015.1 |
| 20260904121503 | 79 | 157 | 0.0 | 0.0 | 0.00 | 0.27 | 0.01 | 95 | 1014.9 |
| 20260904121003 | 79 | 157 | 0.0 | 0.0 | 0.00 | 0.27 | 0.01 | 95 | 1014.8 |
| 20260904120502 | 79 | 157 | 0.0 | 0.0 | 0.00 | 0.27 | 0.01 | 95 | 1014.8 |
| 20260904120002 | 79 | 157 | 0.0 | 0.0 | 0.00 | 0.27 | 0.01 | 95 | 1014.8 |
| 20260904115502 | 79 | 157 | 0.0 | 0.0 | 0.00 | 0.27 | 0.01 | 95 | 1014.8 |
| 20260904115002 | 79 | 157 | 0.0 | 0.0 | 0.00 | 0.27 | 0.01 | 95 | 1014.8 |
| 20260904114503 | 79 | 157 | 0.0 | 0.0 | 0.00 | 0.27 | 0.01 | 95 | 1014.8 |
| 20260904114001 | 79 | 157 | 0.0 | 0.0 | 0.00 | 0.27 | 0.01 | 95 | 1014.9 |
| 20260904113501 | 79 | 157 | 0.0 | 0.0 | 0.00 | 0.27 | 0.01 | 95 | 1014.8 |
| 20260904113101 | 79 | 157 | 0.0 | 0.0 | 0.00 | 0.27 | 0.01 | 95 | 1014.8 |
| 20260904112600 | 79 | 157 | 0.0 | 0.0 | 0.00 | 0.27 | 0.01 | 95 | 1014.9 |
| 20260904112058 | 79 | 157 | 0.0 | 1.0 | 0.00 | 0.27 | 0.01 | 95 | 1014.8 |
| 20260904111600 | 79 | 157 | 0.0 | 1.0 | 0.00 | 0.27 | 0.01 | 95 | 1015.0 |
| 20260904111057 | 79 | 157 | 0.0 | 0.0 | 0.00 | 0.27 | 0.01 | 95 | 1014.9 |
| 20260904110556 | 80 | 157 | 0.0 | 0.0 | 0.00 | 0.27 | 0.01 | 95 | 1014.8 |
| 20260904110056 | 80 | 157 | 0.0 | 1.0 | 0.01 | 0.27 | 0.01 | 95 | 1014.7 |
| 20260904105557 | 80 | 157 | 0.0 | 1.0 | 0.01 | 0.27 | 0.01 | 95 | 1014.7 |
| 20260904105053 | 80 | 159 | 0.0 | 1.0 | 0.01 | 0.27 | 0.01 | 95 | 1014.7 |
| 20260904104602 | 80 | 159 | 0.0 | 2.0 | 0.01 | 0.27 | 0.01 | 94 | 1014.7 |
| 20260904104052 | 80 | 161 | 0.0 | 2.0 | 0.01 | 0.27 | 0.01 | 94 | 1014.8 |
| 20260904103550 | 80 | 169 | 0.0 | 0.0 | 0.01 | 0.27 | 0.01 | 94 | 1014.6 |
| 20260904103102 | 80 | 169 | 0.0 | 0.0 | 0.01 | 0.27 | 0.01 | 94 | 1014.7 |
| 20260904102550 | 80 | 169 | 0.0 | 0.0 | 0.01 | 0.27 | 0.01 | 94 | 1014.7 |
| 20260904102050 | 80 | 169 | 0.0 | 0.0 | 0.01 | 0.27 | 0.01 | 94 | 1014.7 |
| 20260904101549 | 80 | 169 | 0.0 | 0.0 | 0.01 | 0.27 | 0.01 | 94 | 1014.6 |
| 20260904101049 | 80 | 169 | 0.0 | 0.0 | 0.01 | 0.27 | 0.01 | 94 | 1014.5 |
| 20260904100549 | 80 | 169 | 0.0 | 0.0 | 0.00 | 0.26 | 0.00 | 93 | 1014.4 |
| 20260904100048 | 80 | 169 | 0.0 | 0.0 | 0.00 | 0.26 | 0.00 | 93 | 1014.5 |
| 20260904095549 | 80 | 169 | 0.0 | 0.0 | 0.00 | 0.26 | 0.00 | 93 | 1014.5 |
| 20260904095049 | 80 | 169 | 0.0 | 0.0 | 0.00 | 0.26 | 0.00 | 93 | 1014.5 |
| 20260904094548 | 80 | 169 | 0.0 | 0.0 | 0.00 | 0.26 | 0.00 | 93 | 1014.4 |
| 20260904094047 | 80 | 169 | 0.0 | 0.0 | 0.00 | 0.26 | 0.00 | 92 | 1014.4 |
| 20260904093547 | 80 | 169 | 0.0 | 0.0 | 0.00 | 0.26 | 0.00 | 92 | 1014.5 |
| 20260904093046 | 80 | 169 | 0.0 | 1.0 | 0.00 | 0.26 | 0.00 | 92 | 1014.4 |
| 20260904092548 | 80 | 169 | 0.0 | 1.0 | 0.00 | 0.26 | 0.00 | 92 | 1014.4 |
| 20260904092050 | 80 | 169 | 0.0 | 0.0 | 0.00 | 0.26 | 0.00 | 92 | 1014.4 |
| 20260904091558 | 80 | 169 | 0.0 | 0.0 | 0.00 | 0.26 | 0.00 | 92 | 1014.4 |
| 20260904091048 | 80 | 169 | 0.0 | 1.0 | 0.00 | 0.26 | 0.00 | 92 | 1014.4 |
| 20260904090546 | 80 | 169 | 0.0 | 1.0 | 0.00 | 0.26 | 0.00 | 92 | 1014.4 |
| 20260904090045 | 80 | 169 | 0.0 | 1.0 | 0.00 | 0.26 | 0.00 | 92 | 1014.4 |
| 20260904085545 | 80 | 169 | 0.0 | 0.0 | 0.00 | 0.26 | 0.00 | 92 | 1014.4 |
| 20260904085047 | 80 | 169 | 0.0 | 0.0 | 0.00 | 0.26 | 0.00 | 91 | 1014.4 |
| 20260904084544 | 81 | 169 | 0.0 | 0.0 | 0.00 | 0.26 | 0.00 | 91 | 1014.4 |
| 20260904084044 | 81 | 169 | 0.0 | 1.0 | 0.00 | 0.26 | 0.00 | 91 | 1014.4 |
| 20260904083543 | 81 | 169 | 0.0 | 1.0 | 0.00 | 0.26 | 0.00 | 91 | 1014.4 |
| 20260904083103 | 81 | 169 | 0.0 | 0.0 | 0.00 | 0.26 | 0.00 | 91 | 1014.5 |
| 20260904082543 | 81 | 169 | 0.0 | 0.0 | 0.00 | 0.26 | 0.00 | 91 | 1014.4 |
| 20260904082048 | 81 | 169 | 0.0 | 0.0 | 0.00 | 0.26 | 0.00 | 91 | 1014.4 |
| 20260904081542 | 81 | 169 | 0.0 | 0.0 | 0.00 | 0.26 | 0.00 | 91 | 1014.5 |
| 20260904081042 | 81 | 169 | 0.0 | 0.0 | 0.00 | 0.26 | 0.00 | 91 | 1014.4 |
| 20260904080542 | 81 | 169 | 0.0 | 1.0 | 0.00 | 0.26 | 0.00 | 91 | 1014.4 |
| 20260904080042 | 81 | 169 | 0.0 | 1.0 | 0.00 | 0.26 | 0.00 | 91 | 1014.5 |
| 20260904075542 | 81 | 168 | 0.0 | 0.0 | 0.00 | 0.26 | 0.00 | 91 | 1014.5 |
| 20260904075044 | 81 | 168 | 0.0 | 2.0 | 0.00 | 0.26 | 0.00 | 91 | 1014.5 |
| 20260904074559 | 81 | 168 | 0.0 | 2.0 | 0.00 | 0.26 | 0.00 | 91 | 1014.4 |
| 20260904074041 | 81 | 170 | 0.0 | 1.0 | 0.00 | 0.26 | 0.00 | 90 | 1014.5 |
| 20260904073540 | 81 | 170 | 0.0 | 2.0 | 0.00 | 0.26 | 0.00 | 90 | 1014.6 |
| 20260904073039 | 81 | 169 | 0.0 | 2.0 | 0.00 | 0.26 | 0.00 | 90 | 1014.5 |
| 20260904072539 | 81 | 169 | 0.0 | 3.0 | 0.00 | 0.26 | 0.00 | 90 | 1014.7 |
| 20260904072039 | 81 | 169 | 0.0 | 3.0 | 0.00 | 0.26 | 0.00 | 90 | 1014.7 |
| 20260904071539 | 81 | 171 | 0.0 | 4.0 | 0.00 | 0.26 | 0.00 | 91 | 1014.6 |
| 20260904071038 | 81 | 171 | 1.0 | 4.0 | 0.00 | 0.26 | 0.00 | 91 | 1014.7 |
| 20260904070538 | 81 | 165 | 0.0 | 3.0 | 0.00 | 0.26 | 0.00 | 91 | 1014.7 |
| 20260904070038 | 81 | 165 | 0.0 | 4.0 | 0.00 | 0.26 | 0.00 | 91 | 1014.7 |
| 20260904065538 | 81 | 165 | 0.0 | 3.0 | 0.00 | 0.26 | 0.00 | 91 | 1014.8 |
| 20260904065038 | 81 | 164 | 0.0 | 1.0 | 0.00 | 0.26 | 0.00 | 91 | 1014.8 |
| 20260904064538 | 81 | 164 | 0.0 | 1.0 | 0.00 | 0.26 | 0.00 | 91 | 1014.8 |
| 20260904064037 | 81 | 164 | 0.0 | 1.0 | 0.00 | 0.26 | 0.00 | 91 | 1014.9 |
| 20260904063537 | 81 | 164 | 0.0 | 2.0 | 0.00 | 0.26 | 0.00 | 91 | 1015.0 |
| 20260904063040 | 81 | 164 | 0.0 | 2.0 | 0.00 | 0.26 | 0.00 | 91 | 1014.9 |
| 20260904062535 | 81 | 165 | 0.0 | 0.0 | 0.00 | 0.26 | 0.00 | 91 | 1014.9 |
| 20260904062036 | 81 | 161 | 0.0 | 2.0 | 0.00 | 0.26 | 0.00 | 91 | 1014.9 |
| 20260904061540 | 81 | 167 | 0.0 | 5.0 | 0.00 | 0.26 | 0.00 | 91 | 1014.9 |
| 20260904061036 | 81 | 158 | 0.0 | 5.0 | 0.00 | 0.26 | 0.00 | 91 | 1014.8 |
| 20260904060536 | 81 | 120 | 1.0 | 4.0 | 0.00 | 0.26 | 0.00 | 91 | 1014.8 |
| 20260904060035 | 81 | 153 | 0.0 | 4.0 | 0.00 | 0.26 | 0.00 | 91 | 1014.9 |
| 20260904055535 | 81 | 169 | 0.0 | 3.0 | 0.00 | 0.26 | 0.00 | 91 | 1014.8 |
| 20260904055036 | 81 | 170 | 0.0 | 3.0 | 0.00 | 0.26 | 0.00 | 91 | 1014.9 |
| 20260904054536 | 81 | 170 | 0.0 | 5.0 | 0.00 | 0.26 | 0.00 | 91 | 1014.9 |
| 20260904054034 | 81 | 157 | 0.0 | 3.0 | 0.01 | 0.26 | 0.00 | 91 | 1014.8 |
| 20260904053534 | 81 | 159 | 0.0 | 2.0 | 0.01 | 0.26 | 0.00 | 91 | 1014.9 |
| 20260904053037 | 81 | 148 | 0.0 | 3.0 | 0.01 | 0.26 | 0.00 | 91 | 1014.9 |
| 20260904052533 | 81 | 148 | 0.0 | 3.0 | 0.01 | 0.26 | 0.00 | 91 | 1014.7 |
| 20260904052033 | 81 | 156 | 1.0 | 4.0 | 0.01 | 0.26 | 0.00 | 91 | 1014.7 |
| 20260904051533 | 81 | 153 | 1.0 | 4.0 | 0.01 | 0.26 | 0.00 | 91 | 1014.8 |
| 20260904051031 | 81 | 153 | 0.0 | 5.0 | 0.01 | 0.26 | 0.00 | 91 | 1014.9 |
| 20260904050533 | 81 | 152 | 0.0 | 5.0 | 0.01 | 0.26 | 0.00 | 91 | 1014.8 |
| 20260904050029 | 81 | 151 | 0.0 | 3.0 | 0.01 | 0.26 | 0.00 | 91 | 1014.9 |
| 20260904045531 | 81 | 143 | 0.0 | 2.0 | 0.01 | 0.26 | 0.26 | 91 | 1014.7 |
| 20260904045031 | 81 | 143 | 0.0 | 3.0 | 0.01 | 0.26 | 0.26 | 91 | 1014.7 |
| 20260904044529 | 81 | 142 | 0.0 | 3.0 | 0.01 | 0.26 | 0.26 | 91 | 1014.7 |
| 20260904044028 | 81 | 162 | 0.0 | 2.0 | 0.00 | 0.25 | 0.25 | 91 | 1014.6 |